FW0959 Weather Reports


time (UTC)temp
C
wind
direction
speed
KPH
gust
KPH
rain 1hr
cm
rain 24hr
cm
rain mn
cm
humidity
%
barometer
mb
20260505112029 5 157 0.0 0.0 0.00 0.00 0.00 89 1019.2
20260505111128 6 157 0.0 0.0 0.00 0.00 0.00 88 1019.3
20260505110128 6 157 0.0 0.0 0.00 0.00 0.00 88 1019.3
20260505101330 7 157 0.0 0.0 0.00 0.00 0.00 88 1019.2
20260505100328 7 157 0.0 0.0 0.00 0.00 0.00 87 1019.2
20260505095426 7 157 0.0 0.0 0.00 0.00 0.00 87 1019.2
20260505094427 7 157 0.0 0.0 0.00 0.00 0.00 85 1019.0
20260505093527 7 157 0.0 0.0 0.00 0.00 0.00 84 1018.8
20260505092527 7 157 0.0 0.0 0.00 0.00 0.00 84 1019.0
20260505092429 7 157 0.0 0.0 0.00 0.00 0.00 84 1019.0
20260505091429 8 157 0.0 0.0 0.00 0.00 0.00 84 1018.9
20260505090527 8 157 0.0 1.6 0.00 0.00 0.00 83 1018.9
20260505085527 8 202 0.0 0.0 0.00 0.00 0.00 84 1018.9
20260505084528 8 202 0.0 0.0 0.00 0.00 0.00 84 1019.0
20260505083528 8 202 0.0 3.2 0.00 0.00 0.00 83 1019.0
20260505082527 8 202 0.0 0.0 0.00 0.00 0.00 83 1018.8
20260505081528 8 202 0.0 0.0 0.00 0.00 0.00 82 1018.8
20260505080529 9 202 0.0 1.6 0.00 0.00 0.00 82 1018.9
20260505075529 9 201 0.0 3.2 0.00 0.00 0.00 81 1018.7
20260505074529 9 225 0.0 0.0 0.00 0.00 0.00 81 1018.8
20260505073528 9 211 0.0 1.6 0.00 0.00 0.00 80 1018.8
20260505072527 9 202 0.0 0.0 0.00 0.00 0.00 80 1018.8
20260505071528 10 202 0.0 0.0 0.00 0.00 0.00 79 1019.0
20260505070529 10 202 0.0 1.6 0.00 0.00 0.00 78 1019.0
20260505065528 10 157 0.0 0.0 0.00 0.00 0.00 77 1019.0
20260505064627 10 186 0.0 1.6 0.00 0.00 0.00 77 1019.1
20260505063629 11 157 0.0 0.0 0.00 0.00 0.00 77 1019.2
20260505062629 11 22 0.0 0.0 0.00 0.00 0.00 78 1019.3
20260505062530 11 22 0.0 0.0 0.00 0.00 0.00 78 1019.3
20260505061627 11 22 0.0 0.0 0.00 0.00 0.00 77 1019.5
20260505055727 10 22 0.0 0.0 0.00 0.00 0.00 77 1019.2
20260505054727 11 22 0.0 1.6 0.00 0.00 0.00 75 1019.4
20260505052829 11 22 0.0 0.0 0.00 0.00 0.00 71 1019.2
20260505051827 12 22 0.0 1.6 0.00 0.00 0.00 68 1019.4
20260505050829 13 22 0.0 0.0 0.00 0.00 0.00 67 1019.5
20260505040729 13 22 0.0 0.0 0.00 0.00 0.00 65 1019.5
20260505035746 13 22 0.0 0.0 0.00 0.00 0.00 64 1019.6
20260505034845 13 22 3.2 4.8 0.00 0.00 0.00 64 1019.8
20260505033944 13 22 0.0 1.6 0.00 0.00 0.00 64 1019.8
20260505032947 14 22 0.0 0.0 0.00 0.00 0.00 62 1019.8
20260505032044 14 22 1.6 4.8 0.00 0.00 0.00 61 1019.9
20260505031044 14 22 0.0 1.6 0.00 0.00 0.00 61 1019.9
20260505030045 15 22 1.6 3.2 0.00 0.00 0.00 60 1019.8
20260505025945 15 22 1.6 1.6 0.00 0.00 0.00 60 1019.8
20260505024944 15 22 1.6 1.6 0.00 0.00 0.00 60 1019.8
20260505023944 15 22 1.6 4.8 0.00 0.00 0.00 60 1019.6
20260505022946 15 22 1.6 3.2 0.00 0.00 0.00 60 1019.5
20260505021946 15 22 3.2 4.8 0.00 0.00 0.00 59 1019.8
20260505021844 15 22 1.6 3.2 0.00 0.00 0.00 59 1019.7
20260505015948 15 22 3.2 6.4 0.00 0.00 0.00 60 1019.5
20260505014946 15 22 1.6 3.2 0.00 0.00 0.00 60 1019.5
20260505014844 15 22 1.6 3.2 0.00 0.00 0.00 60 1019.5
20260505012946 15 22 1.6 1.6 0.00 0.00 0.00 59 1019.2
20260505011944 15 22 1.6 3.2 0.00 0.00 0.00 59 1019.2
20260505010945 15 22 0.0 1.6 0.00 0.00 0.00 58 1019.1
20260505010044 16 22 0.0 1.6 0.00 0.00 0.00 57 1019.0
20260505004045 16 342 0.0 1.6 0.00 0.00 0.00 56 1019.0
20260505003044 16 247 0.0 0.0 0.00 0.00 0.00 56 1018.8
20260505002046 17 247 0.0 0.0 0.00 0.00 0.00 55 1018.8
20260505001144 17 247 0.0 0.0 0.00 0.00 0.00 54 1018.8
20260505001044 17 247 0.0 0.0 0.00 0.00 0.00 54 1018.8
20260505000946 17 247 0.0 0.0 0.00 0.00 0.00 54 1018.8
20260504235945 18 247 0.0 0.0 0.00 0.00 0.00 52 1018.7
20260504234945 18 247 0.0 0.0 0.00 0.00 0.00 51 1018.7
20260504234044 18 247 0.0 0.0 0.00 0.00 0.00 48 1018.6
20260504233044 19 247 0.0 0.0 0.00 0.00 0.00 46 1018.4
20260504232046 19 247 3.2 6.4 0.00 0.00 0.00 46 1018.4
20260504231044 20 247 1.6 3.2 0.00 0.00 0.00 45 1018.3
20260504230045 20 247 0.0 3.2 0.00 0.00 0.00 45 1018.2
20260504225945 20 247 1.6 3.2 0.00 0.00 0.00 45 1018.2
20260504224944 20 292 1.6 3.2 0.00 0.00 0.00 44 1018.2
20260504223946 20 270 1.6 4.8 0.00 0.00 0.00 44 1018.2
20260504222946 20 292 0.0 3.2 0.00 0.00 0.00 43 1018.2
20260504221944 20 292 8.0 11.3 0.00 0.00 0.00 42 1018.2
20260504220945 21 235 3.2 6.4 0.00 0.00 0.00 41 1018.2
20260504215046 21 305 0.0 1.6 0.00 0.00 0.00 40 1018.1
20260504214144 21 202 1.6 3.2 0.00 0.00 0.00 40 1018.3
20260504213145 22 292 4.8 6.4 0.00 0.00 0.00 40 1018.1
20260504212243 22 292 3.2 3.2 0.00 0.00 0.00 40 1017.9
20260504212144 22 292 3.2 6.4 0.00 0.00 0.00 40 1017.9
20260504211145 22 247 1.6 3.2 0.00 0.00 0.00 39 1017.9
20260504210144 23 175 0.0 1.6 0.00 0.00 0.00 37 1017.8
20260504205145 23 245 3.2 4.8 0.00 0.00 0.00 37 1017.9
20260504204145 23 245 3.2 6.4 0.00 0.00 0.00 37 1017.8
20260504202244 23 247 3.2 4.8 0.00 0.00 0.00 36 1017.8
20260504201245 23 247 1.6 3.2 0.00 0.00 0.00 35 1018.0
20260504200246 23 292 1.6 8.0 0.00 0.00 0.00 35 1017.9
20260504195145 23 267 3.2 8.0 0.00 0.00 0.00 35 1018.1
20260504194146 23 240 1.6 3.2 0.00 0.00 0.00 35 1018.3
20260504193145 24 247 3.2 4.8 0.00 0.00 0.00 34 1018.5
20260504192245 24 246 3.2 4.8 0.00 0.00 0.00 35 1018.5
20260504191243 23 247 0.0 1.6 0.00 0.00 0.00 35 1018.6
20260504190247 23 287 4.8 8.0 0.00 0.00 0.00 34 1018.7
20260504185345 23 247 1.6 3.2 0.00 0.00 0.00 33 1018.8
20260504184345 23 225 1.6 4.8 0.00 0.00 0.00 32 1018.8
20260504183346 24 258 0.0 1.6 0.00 0.00 0.00 31 1018.8
20260504182443 23 197 4.8 9.7 0.00 0.00 0.00 30 1018.9
20260504180447 25 158 0.0 3.2 0.00 0.00 0.00 26 1019.0
20260504174446 25 247 0.0 0.0 0.00 0.00 0.00 27 1019.1
20260504173446 24 202 0.0 3.2 0.00 0.00 0.00 30 1019.5
20260504172446 23 157 0.0 0.0 0.00 0.00 0.00 30 1019.5
20260504171444 22 202 0.0 0.0 0.00 0.00 0.00 32 1019.7
20260504170446 22 253 1.6 3.2 0.00 0.00 0.00 34 1020.0
20260504150744 11 22 1.6 1.6 0.00 0.00 0.00 82 1021.5
20260504140847 7 202 0.0 0.0 0.00 0.00 0.00 91 1021.6